Torna al catalogo

OPS 2644 DEB

AttivoPO
NORAD 3841·DEBRIS·🇺🇸 United States

Lanciato Feb 5, 1969 da Vandenberg Space Force Base

Loading…

Prossimi Passaggi (prossime 24 ore)

TLE

AggiornatoSource: Space-Track

Epoca: Sep 14, 2026, 02:32 UTC

1 03841U 69010D   26257.10619655  .00000040  00000-0  18019-3 0  9993
2 03841  80.1777 310.3385 0031579 240.1611 145.8590 12.66877695661980

Traccia OPS 2644 DEB in tempo reale con AllMySat

Download on the App Store